OBJECT D, 65262

Orbit data source: Space-Track

You're viewing an Uncataloged Satellite

Recently launched and/or uncataloged satellites may have evolving metadata. Metadata may include but not limited to: Owner, Maufacturer, Bus, Motor, and Mission.

OBJECT D, 65262 is a Chinese satellite in SSO that was launched on Tue, 19 Aug 2025 UTC via a LIJIAN-1 launch vehicle from the Jiuquan Satellite Launch Center, China (JSC). Unknown objects in Earth's orbit typically refer to objects detected orbiting the Earth but have not yet been identified or cataloged. These objects could be anything from previously untracked satellites, spent rocket stages, debris from satellite collisions, or even natural meteoroids temporarily captured by Earth's gravity.

Loading next visibility...
Identifier
65262, 2025-180D
Orbit
SSO
Country
Flag of CNCN / PRC
Related business
None
Manufacturer
Unknown
Mission
Operational Defense Technology
Bus & Motor
Unknown
Mass
Unknown
Launch date (UTC)
2025-08-19 (10 months ago)
Launch vehicle
LIJIAN-1
Launch site
Jiuquan Satellite Launch Center, China (JSC)
Object type
Unknown
Shape & HBR
Box, 1.1 m
Radar Cross Section
0.080 m², Large (>1 m²)

Expand to show TLE details & history
Last TLE update: 10 hours ago

TLE from 10 hours ago
0 OBJECT D
1 65262U 25180D   26171.43310659  .00003770  00000-0  20254-3 0  9998
2 65262  97.5271 298.6038 0012833 313.0277  46.9880 15.15457069 46154
Epoch: 2026-06-20T10:23Z
TLE epoch observation values (Epoch: 2026-06-20T10:23:40.409Z)
Latitude
0.00004°
Longitude
-125.96238°
Altitude
516.638 km
Speed
7.609 km/s
True Right ascension
19h 54m 24s
True Declination
0° 00' 00"
Sunlit
Object was in full shadow at epoch
Visualization orbit readout
Latitude
Unknown
Longitude
Unknown
Altitude
Unknown
Speed
Unknown
Apparent Right ascension
Unknown
Apparent Declination
Unknown
Sunlit
N/A
Visualization observer readout
Local Sidereal Time
07:18:35
Azimuth
Unknown
Elevation
Unknown
Doppler factor
Unknown
Orbital elements
Apogee altitude
525.416 km
Perigee altitude
507.72 km
Semi-major axis
6,894.705 km
Eccentricity
0.00128
Inclination
97.5271°
RAAN
298.6038°
Arg. of periapsis
313.0277°
True anomaly
47.09565°
Mean anomaly
46.988°
Eccentric anomaly
47.04181°
Mean motion
3.79114 °/min
Orbital period
94.96 mins
BSTAR
0.00020254
Loading maneuver chart data...
Computing Atmospheric mass density...
Loading historical data...
Loading historical data...
Loading historical data...
Loading historical data...
Loading historical data...
Loading historical data...
Loading historical data...
Other satellites on launch #180 in the year 2025 (2025-08-19 UTC)

Documentation

Showing up to 5 results
|